| time (UTC) | temp C | wind direction | speed KPH | gust KPH | rain 1hr cm | rain 24hr cm | rain mn cm | humidity % | barometer mb |
| 20260505024521 | 13 | 245 | 16.1 | 20.9 | 0.00 | 0.05 | 0.00 | 82 | |
| 20260505023526 | 13 | 238 | 11.3 | 19.3 | 0.00 | 0.05 | 0.00 | 85 | |
| 20260505022523 | 12 | 246 | 14.5 | 20.9 | 0.00 | 0.05 | 0.00 | 88 | |
| 20260505021528 | 12 | 258 | 9.7 | 12.9 | 0.00 | 0.05 | 0.00 | 91 | |
| 20260505020524 | 12 | 228 | 8.0 | 14.5 | 0.00 | 0.05 | 0.00 | 94 | |
| 20260505015530 | 12 | 214 | 6.4 | 12.9 | 0.00 | 0.05 | 0.00 | 95 | |
| 20260505014525 | 12 | 205 | 8.0 | 11.3 | 0.00 | 0.05 | 0.00 | 96 | |
| 20260505013522 | 11 | 202 | 8.0 | 12.9 | 0.00 | 0.05 | 0.00 | 99 | |
| 20260505012527 | 11 | 218 | 8.0 | 11.3 | 0.00 | 0.05 | 0.00 | 99 | |
| 20260505011523 | 11 | 201 | 8.0 | 12.9 | 0.00 | 0.05 | 0.00 | 99 | |
| 20260505010528 | 11 | 201 | 9.7 | 14.5 | 0.00 | 0.05 | 0.00 | 99 | |
| 20260505005525 | 11 | 217 | 12.9 | 19.3 | 0.00 | 0.05 | 0.00 | 99 | |
| 20260505004530 | 11 | 236 | 16.1 | 20.9 | 0.00 | 0.05 | 0.00 | 99 | |
| 20260505003525 | 11 | 217 | 11.3 | 17.7 | 0.00 | 0.05 | 0.00 | 99 | |
| 20260505002543 | 11 | 241 | 12.9 | 19.3 | 0.00 | 0.05 | 0.00 | 99 | |
| 20260505001526 | 11 | 238 | 9.7 | 16.1 | 0.00 | 0.05 | 0.00 | 99 | |
| 20260505000523 | 11 | 247 | 11.3 | 16.1 | 0.00 | 0.05 | 0.00 | 99 | |
| 20260504235528 | 11 | 249 | 8.0 | 14.5 | 0.00 | 0.05 | 0.05 | 99 | |
| 20260504234524 | 11 | 247 | 6.4 | 9.7 | 0.00 | 0.05 | 0.05 | 99 | |
| 20260504233529 | 11 | 246 | 8.0 | 9.7 | 0.00 | 0.08 | 0.05 | 99 | |
| 20260504232526 | 11 | 243 | 11.3 | 16.1 | 0.00 | 0.10 | 0.05 | 99 | |
| 20260504231521 | 11 | 217 | 6.4 | 11.3 | 0.00 | 0.15 | 0.05 | 99 | |
| 20260504230526 | 11 | 231 | 6.4 | 9.7 | 0.00 | 0.18 | 0.05 | 99 | |
| 20260504225524 | 11 | 248 | 6.4 | 14.5 | 0.00 | 0.20 | 0.05 | 99 | |
| 20260504224528 | 11 | 272 | 8.0 | 11.3 | 0.00 | 0.25 | 0.05 | 99 | |
| 20260504223524 | 10 | 258 | 8.0 | 9.7 | 0.00 | 0.38 | 0.05 | 99 | |
| 20260504222529 | 10 | 255 | 8.0 | 11.3 | 0.00 | 0.43 | 0.05 | 99 | |
| 20260504221525 | 10 | 255 | 8.0 | 12.9 | 0.00 | 0.41 | 0.05 | 99 | |
| 20260504220522 | 10 | 268 | 9.7 | 14.5 | 0.00 | 0.43 | 0.05 | 99 | |
| 20260504215526 | 10 | 263 | 8.0 | 11.3 | 0.00 | 0.43 | 0.05 | 99 | |
| 20260504214523 | 10 | 272 | 9.7 | 9.7 | 0.00 | 0.46 | 0.05 | 99 | |
| 20260504213529 | 10 | 284 | 6.4 | 8.0 | 0.00 | 0.46 | 0.05 | 99 | |
| 20260504212523 | 10 | 286 | 6.4 | 9.7 | 0.00 | 0.48 | 0.05 | 99 | |
| 20260504211550 | 10 | 278 | 8.0 | 11.3 | 0.00 | 0.48 | 0.05 | 99 | |
| 20260504210526 | 10 | 271 | 9.7 | 12.9 | 0.00 | 0.48 | 0.05 | 99 | |
| 20260504205542 | 10 | 267 | 9.7 | 11.3 | 0.00 | 0.48 | 0.05 | 99 | |
| 20260504204526 | 10 | 278 | 11.3 | 16.1 | 0.00 | 0.48 | 0.05 | 99 | |
| 20260504203523 | 10 | 280 | 9.7 | 14.5 | 0.00 | 0.48 | 0.05 | 99 | |
| 20260504202527 | 10 | 287 | 9.7 | 12.9 | 0.00 | 0.51 | 0.05 | 99 | |
| 20260504201523 | 10 | 289 | 8.0 | 11.3 | 0.00 | 0.51 | 0.05 | 99 | |
| 20260504200529 | 10 | 291 | 9.7 | 12.9 | 0.00 | 0.51 | 0.05 | 99 | |
| 20260504195525 | 10 | 291 | 9.7 | 12.9 | 0.00 | 0.51 | 0.05 | 99 | |
| 20260504194542 | 10 | 283 | 8.0 | 11.3 | 0.00 | 0.51 | 0.05 | 99 | |
| 20260504193527 | 10 | 276 | 8.0 | 12.9 | 0.00 | 0.51 | 0.05 | 99 | |
| 20260504192523 | 10 | 269 | 9.7 | 12.9 | 0.00 | 0.51 | 0.05 | 99 | |
| 20260504191528 | 10 | 282 | 8.0 | 11.3 | 0.00 | 0.51 | 0.05 | 99 | |
| 20260504190524 | 10 | 283 | 8.0 | 12.9 | 0.00 | 0.51 | 0.05 | 99 | |
| 20260504185528 | 10 | 280 | 9.7 | 14.5 | 0.00 | 0.51 | 0.05 | 99 | |
| 20260504184524 | 10 | 278 | 8.0 | 9.7 | 0.00 | 0.51 | 0.05 | 99 | |
| 20260504183543 | 10 | 278 | 8.0 | 11.3 | 0.00 | 0.51 | 0.05 | 99 | |
| 20260504182527 | 10 | 283 | 8.0 | 9.7 | 0.00 | 0.51 | 0.05 | 99 | |
| 20260504181542 | 10 | 280 | 9.7 | 11.3 | 0.00 | 0.51 | 0.05 | 99 | |
| 20260504180527 | 10 | 277 | 9.7 | 12.9 | 0.00 | 0.51 | 0.05 | 99 | |
| 20260504175524 | 10 | 280 | 8.0 | 12.9 | 0.00 | 0.51 | 0.05 | 99 | |
| 20260504174549 | 10 | 281 | 9.7 | 12.9 | 0.00 | 0.51 | 0.05 | 99 | |
| 20260504173525 | 10 | 275 | 9.7 | 12.9 | 0.00 | 0.51 | 0.05 | 98 | |
| 20260504172521 | 10 | 270 | 9.7 | 14.5 | 0.00 | 0.51 | 0.05 | 98 | |
| 20260504171548 | 10 | 283 | 9.7 | 12.9 | 0.00 | 0.51 | 0.05 | 98 | |
| 20260504170522 | 10 | 279 | 11.3 | 14.5 | 0.00 | 0.51 | 0.05 | 98 | |
| 20260504150522 | 11 | 288 | 12.9 | 17.7 | 0.00 | 0.51 | 0.05 | 97 | |
| 20260504140525 | 10 | 280 | 11.3 | 16.1 | 0.00 | 0.51 | 0.05 | 98 | |
| 20260504130529 | 10 | 281 | 9.7 | 12.9 | 0.00 | 0.51 | 0.05 | 96 | |
| 20260504110527 | 11 | 263 | 12.9 | 16.1 | 0.00 | 0.51 | 0.05 | 91 | |
| 20260504100522 | 11 | 257 | 14.5 | 20.9 | 0.00 | 0.51 | 0.05 | 90 | |
| 20260504081525 | 13 | 255 | 32.2 | 41.8 | 0.00 | 0.51 | 0.05 | 81 | |
| 20260504080521 | 13 | 253 | 27.4 | 33.8 | 0.00 | 0.51 | 0.05 | 78 | |
| 20260504050523 | 14 | 248 | 24.1 | 32.2 | 0.03 | 0.51 | 0.05 | 88 | |
| 20260504045528 | 14 | 250 | 24.1 | 33.8 | 0.03 | 0.51 | 0.05 | 86 | |
| 20260504044525 | 13 | 243 | 22.5 | 33.8 | 0.03 | 0.51 | 0.05 | 90 | |
| 20260504043521 | 13 | 243 | 17.7 | 24.1 | 0.00 | 0.51 | 0.03 | 90 | |
| 20260504042526 | 13 | 212 | 9.7 | 14.5 | 0.00 | 0.48 | 0.03 | 88 | |
| 20260504041523 | 13 | 246 | 22.5 | 33.8 | 0.00 | 0.48 | 0.03 | 90 | |
| 20260504040527 | 14 | 262 | 27.4 | 38.6 | 0.00 | 0.48 | 0.03 | 86 | |
| 20260504035523 | 15 | 260 | 27.4 | 37.0 | 0.00 | 0.48 | 0.03 | 84 | |
| 20260504034528 | 15 | 253 | 32.2 | 45.1 | 0.00 | 0.48 | 0.03 | 82 | |
| 20260504033525 | 15 | 264 | 32.2 | 48.3 | 0.00 | 0.48 | 0.03 | 82 | |
| 20260504032521 | 15 | 269 | 33.8 | 51.5 | 0.00 | 0.48 | 0.03 | 84 | |
| 20260504031525 | 15 | 274 | 37.0 | 51.5 | 0.00 | 0.48 | 0.03 | 84 | |
| 20260504030523 | 14 | 285 | 33.8 | 43.5 | 0.00 | 0.48 | 0.03 | 88 | |
| 20260504025527 | 14 | 280 | 33.8 | 46.7 | 0.00 | 0.48 | 0.03 | 89 |